Regional Weather Roundup
Issued by NWS Charleston, WV

Home | Current Version | Previous Version | Graphics & Text | Print | Product List | Glossary On
Versions: 1 2 3 4 5 6 7 8 9 10 11 12 13 14 15 16 17 18 19 20 21 22 23 24 25 26 27 28 29 30 31 32 33 34 35 36 37 38 39 40 41 42 43 44 45 46 47 48 49 50
000
ASUS41 KRLX 291910
RWRRLX
West Virginia Regional Weather Roundup
National Weather Service Charleston WV
300 PM EDT SAT AUG 29 2015

Note: "fair" indicates few or no clouds below 12,000 feet with no
significant weather and/or obstructions to visibility.

WVZ003-292000-
Northern Panhandle of West Virginia

CITY           SKY/WX    TMP DP  RH WIND       PRES   REMARKS
WHEELING       MOSUNNY   82  62  50 SW7       30.14F
$$

WVZ009-292000-
Northwest West Virginia

CITY           SKY/WX    TMP DP  RH WIND       PRES   REMARKS
PARKERSBURG    PTSUNNY  N/A N/A N/A SW9       30.16F
$$

WVZ006-292000-
Western West Virginia

CITY           SKY/WX    TMP DP  RH WIND       PRES   REMARKS
HUNTINGTON     MOSUNNY   86  64  47 S13       30.14F
$$

WVZ015-292000-
West Central West Virginia

CITY           SKY/WX    TMP DP  RH WIND       PRES   REMARKS
CHARLESTON     LGT RAIN  80  65  59 SW8       30.16F
$$

WVZ022-031-292000-
North Central West Virginia

CITY           SKY/WX    TMP DP  RH WIND       PRES   REMARKS
CLARKSBURG     PTSUNNY   83  60  45 VRB3      30.16F
MORGANTOWN     MOSUNNY   87  56  34 VRB3      30.16F
$$

WVZ025-035-042-045-292000-
Southern West Virginia

CITY           SKY/WX    TMP DP  RH WIND       PRES   REMARKS
BECKLEY        PTSUNNY   76  58  53 W7        30.26S
LOGAN            N/A     81  64  57 VRB5      30.20F
BLUEFIELD      CLOUDY    78  56  46 CALM      30.27F
LEWISBURG      PTSUNNY   81  54  39 W3        30.24S
$$

WVZ047-292000-
Northern Mountains of West Virginia

CITY           SKY/WX    TMP DP  RH WIND       PRES   REMARKS
ELKINS         MOSUNNY   83  56  39 SW8       30.21F
$$

WVZ052-292000-
Eastern Panhandle of West Virginia

CITY           SKY/WX    TMP DP  RH WIND       PRES   REMARKS
MARTINSBURG    SUNNY     88  55  32 NW7       30.13F
PETERSBURG     MOSUNNY   87  58  36 NE5       30.14F
$$


USA.gov is the U.S. government's official web portal to all federal, state and local government web resources and services.